Lapse_Rate
5.9 5.6 4.8 4.9 4.8 4.6 4.8 4.5 5.1 5.1 5.4 6.0 6.7 6.2 6.4 6.0 6.0 5.9 6.1 5.7 6.1 6.5
5.8 5.4 4.8 4.7 5.3 4.8 4.4 4.5 4.8 5.6 6.3 5.9 5.7 6.8 6.7 6.0 5.7 5.6 5.5 5.3 5.4 5.9
5.1 5.3 5.5 5.5 5.4 5.1 5.1 4.6 5.2 6.1 6.4 5.8 5.7 6.6 5.5 5.8 5.9 5.9 5.2 5.1 5.5 5.3
4.9 4.9 5.6 5.6 5.2 4.7 4.4 4.7 4.5 5.1 5.1 4.6 5.2 5.4 5.8 6.0 6.0 5.9 4.9 4.6 4.1 3.5
4.3 4.4 4.7 5.2 4.9 4.7 4.8 4.2 3.6 3.5 4.1 4.6 5.0 3.8 3.6 3.9 4.4 4.2 4.1 4.4 4.0 3.1
3.8 4.2 4.5 4.4 4.2 4.6 4.1 2.6 3.1 3.6 3.8 4.1 4.1 3.9 3.2 3.5 3.2 3.2 2.3 2.7 3.6 4.0
4.2 4.1 4.2 3.9 3.5 3.7 3.9 3.5 3.3 3.8 3.0 3.2 3.4 3.5 4.6 4.6 4.9 4.6 4.3 3.2 2.6 2.8
4.0 3.6 3.5 3.2 3.2 3.4 3.3 3.2 3.6 3.9 3.4 3.7 4.5 4.3 4.5 4.5 5.1 4.8 3.3 3.0 3.0 2.6
3.4 3.2 2.9 3.2 3.3 3.2 3.1 3.1 3.1 3.3 3.2 3.5 3.8 2.3 2.4 4.0 5.1 4.9 5.1 4.8 4.5 4.1
3.0 2.9 2.9 2.7 2.9 3.0 3.4 3.3 3.0 3.1 3.3 3.7 4.0 2.3 1.9 2.0 4.3 4.5 4.6 4.5 4.3 4.0
2.7 2.6 2.7 2.2 2.1 2.5 2.5 2.5 2.7 3.1 3.1 3.2 3.1 2.1 1.6 1.6 3.5 3.8 3.8 4.1 4.5 4.8
2.6 2.8 2.8 2.2 2.3 2.5 2.4 2.4 2.4 2.6 2.5 2.8 3.3 1.8 1.7 2.5 3.9 4.1 3.9 4.0 4.1 4.4
2.9 2.8 2.8 2.8 2.7 2.4 2.0 2.3 2.2 2.3 2.6 2.8 3.6 1.7 2.2 2.2 3.9 4.5 4.3 3.7 3.7 2.7
2.9 2.4 3.2 3.2 2.8 1.9 1.9 2.3 2.7 2.6 3.1 2.8 3.0 3.3 2.2 2.0 3.8 4.4 4.4 4.2 4.3 3.9
Wind_Speed
5 5 6 7 7 6 7 7 10 9 9 10 9 8 7 6 6 8 8 9 8 7
4 5 6 8 8 6 7 7 9 9 9 8 8 8 8 5 6 5 6 7 6 5
4 4 5 5 6 8 8 8 9 8 8 8 8 8 6 5 4 5 3 3 4 4
5 4 6 6 5 6 7 8 8 7 6 7 7 8 7 5 6 5 6 6 5 5
6 6 6 6 5 4 5 5 5 6 6 6 6 6 6 6 6 5 4 3 4 4
8 7 7 6 5 4 3 2 3 3 4 4 5 4 4 3 3 4 5 6 5 5
9 8 7 5 5 5 3 1 1 1 1 2 3 3 2 2 3 4 6 6 6 6
9 8 7 7 6 4 4 2 2 2 2 2 2 3 2 2 3 5 6 6 8 8
10 9 9 8 7 6 5 3 2 2 1 1 1 3 2 2 2 4 3 4 5 6
11 11 10 9 8 7 6 4 4 3 3 3 1 1 3 2 3 3 3 3 4 4
12 12 11 10 10 10 8 8 7 6 6 5 3 4 5 5 4 3 4 3 3 3
13 11 11 11 11 10 9 8 8 7 8 7 6 7 7 6 4 4 4 3 3 2
12 13 14 13 11 10 9 9 7 8 8 8 7 8 10 8 4 6 4 5 5 4
11 13 13 11 10 10 10 9 9 9 9 9 10 9 13 13 6 5 5 5 5 5
Wind_Direction
329 326 315 308 317 311 312 315 315 316 314 318 321 317 314 300 292 288 277 269 272 269
322 323 319 321 314 317 316 310 314 307 311 316 319 313 318 314 309 308 295 289 276 267
287 303 308 311 326 326 316 319 322 325 336 331 323 323 330 318 312 313 337 334 326 337
269 286 295 298 314 330 322 334 332 330 346 340 337 340 336 345 355 2 360 3 22 27
253 258 269 290 309 320 332 349 346 351 354 345 353 356 0 359 2 4 24 42 61 39
238 248 259 271 282 293 296 8 25 5 2 358 2 8 17 31 47 52 40 22 32 47
233 237 245 254 260 269 285 314 297 292 332 343 349 356 3 39 72 73 63 59 50 46
225 225 234 238 243 250 261 265 284 297 324 329 337 0 356 44 53 85 78 63 65 58
214 214 221 226 228 231 237 234 236 251 293 309 7 34 36 334 100 107 101 92 82 76
212 214 215 216 218 225 232 228 227 231 235 227 212 78 108 101 129 130 129 132 126 107
214 215 213 210 212 213 212 214 213 213 217 218 201 179 156 156 156 159 158 161 151 137
218 216 214 216 215 213 212 213 216 217 213 218 212 197 181 190 187 182 176 174 179 156
219 218 217 217 212 210 215 219 213 217 219 220 225 204 203 204 199 199 193 183 183 205
230 225 225 220 211 202 204 214 219 221 216 217 217 210 213 207 217 208 202 203 201 198